SES-11 (ECHOSTAR 105) (42967 NORAD) Tracking and Keplerian Element Data

This shows tracking and keplerian element data for the satellite.

Feedback or suggestion? Click here.




ElementValue
Catalog42967
NameSES-11 (ECHOSTAR 105)
Epoch Orbit279
Epoch Day195.47965573
Epoch Year2018
RAAN65.2043
Inclination0.0162
Eccentricity0.0002094
Argument of Perigee47.5348
Mean Anonmoly247.283
Mean Motion1.00269976
Decay Rate-1.05E-06
L11 42967U 17063A 18195.47965573 -.00000105 00000-0 00000-0 0 9992
L22 42967 0.0162 65.2043 0002094 47.5348 247.2830 1.00269976 2799

Live tracking and technical data element details for SES-11 (ECHOSTAR 105) (NORAD 42967). SES-11 (ECHOSTAR 105) can be tracked NOW for your location showing map with azimuth and elevation plus other details from your city location.

Track the satellite on the map from your city or location and see movement details for azimuth, elevation, latitude, longitude, range, height, and movement on the map or in text.







IsCatalogInMostPopularTable: catalog: 42967, numindb: 110
Update: records affected: 1



GetName: 42967 SES-11 (ECHOSTAR 105)

Hit Count: updated at: Sun, 15 Jul 2018 22:56:53 GMT